H1 CPF  2  HTS 2024  9 22 12  266  1 etalon1    NONE
H2  8900103 0525    19751 2024 09 22  0  0  0 2024 09 27  0  0  0   900 1 1  0 0 0 1
H5  0.5580
H9
10 0 60574   81000.00000  0     -14574129.885      16391948.417      13123707.742
10 0 60574   81900.00000  0     -13768755.366      14816192.527      15626050.400
10 0 60574   82800.00000  0     -12985051.774      12913299.880      17826683.973
10 0 60574   83700.00000  0     -12275457.425      10718116.422      19683045.699
10 0 60574   84600.00000  0     -11685979.464       8276344.062      21159158.662
10 0 60574   85500.00000  0     -11254186.900       5642897.391      22226322.084
10 0 60575       0.00000  0     -11007568.854       2879883.494      22863668.789
10 0 60575     900.00000  0     -10962326.555         54285.314      23058579.307
10 0 60575    1800.00000  0     -11122650.373      -2764558.692      22806944.143
10 0 60575    2700.00000  0     -11480513.645      -5507577.150      22113267.985
10 0 60575    3600.00000  0     -12015994.175      -8108584.369      20990612.047
10 0 60575    4500.00000  0     -12698112.656     -10506787.951      19460373.330
10 0 60575    5400.00000  0     -13486155.768     -12649082.079      17551902.441
10 0 60575    6300.00000  0     -14331431.170     -14492030.923      15301964.551
10 0 60575    7200.00000  0     -15179382.916     -16003458.564      12754051.308
10 0 60575    8100.00000  0     -15971979.763     -17163577.422       9957554.745
10 0 60575    9000.00000  0     -16650276.237     -17965605.989       6966817.526
10 0 60575    9900.00000  0     -17157037.815     -18415847.942       3840077.037
10 0 60575   10800.00000  0     -17439317.707     -18533227.560        638323.807
10 0 60575   11700.00000  0     -17450873.742     -18348299.876      -2575902.741
10 0 60575   12600.00000  0     -17154319.953     -17901776.944      -5739756.128
10 0 60575   13500.00000  0     -16522918.349     -17242633.044      -8791335.806
10 0 60575   14400.00000  0     -15541931.676     -16425870.388     -11670924.178
10 0 60575   15300.00000  0     -14209476.968     -15510042.063     -14322180.700
10 0 60575   16200.00000  0     -12536841.557     -14554639.766     -16693267.046
10 0 60575   17100.00000  0     -10548246.794     -13617459.769     -18737879.016
10 0 60575   18000.00000  0      -8280068.951     -12752061.305     -20416163.272
10 0 60575   18900.00000  0      -5779550.464     -12005427.108     -21695499.919
10 0 60575   19800.00000  0      -3103056.728     -11415926.466     -22551135.336
10 0 60575   20700.00000  0       -313952.998     -11011667.403     -22966653.334
10 0 60575   21600.00000  0       2519808.104     -10809307.131     -22934276.536
10 0 60575   22500.00000  0       5328286.210     -10813369.619     -22454993.717
10 0 60575   23400.00000  0       8042230.492     -11016096.992     -21538512.608
10 0 60575   24300.00000  0      10595722.647     -11397838.404     -20203041.264
10 0 60575   25200.00000  0      12928675.972     -11927957.173     -18474904.464
10 0 60575   26100.00000  0      14989087.785     -12566215.195     -16388004.709
10 0 60575   27000.00000  0      16734953.540     -13264573.861     -13983140.147
10 0 60575   27900.00000  0      18135765.718     -13969333.711     -11307194.208
10 0 60575   28800.00000  0      19173538.335     -14623521.492      -8412213.805
10 0 60575   29700.00000  0      19843317.842     -15169423.617      -5354394.676
10 0 60575   30600.00000  0      20153162.580     -15551159.613      -2192993.745
10 0 60575   31500.00000  0      20123594.790     -15717188.141       1010810.644
10 0 60575   32400.00000  0      19786550.667     -15622641.501       4195089.257
10 0 60575   33300.00000  0      19183874.241     -15231392.080       7298341.701
10 0 60575   34200.00000  0      18365419.100     -14517765.521      10260664.007
10 0 60575   35100.00000  0      17386837.538     -13467830.047      13024883.234
10 0 60575   36000.00000  0      16307149.007     -12080208.733      15537639.105
10 0 60575   36900.00000  0      15186188.308     -10366380.835      17750393.800
10 0 60575   37800.00000  0      14082038.550      -8350458.896      19620352.317
10 0 60575   38700.00000  0      13048554.318      -6068449.367      21111277.389
10 0 60575   39600.00000  0      12133076.837      -3567025.181      22194184.547
10 0 60575   40500.00000  0      11374435.208       -901858.317      22847904.782
10 0 60575   41400.00000  0      10801316.474       1864421.793      23059504.181
10 0 60575   42300.00000  0      10431072.599       4664562.847      22824551.982
10 0 60575   43200.00000  0      10269015.011       7429223.803      22147230.765
10 0 60575   44100.00000  0      10308227.767      10089606.333      21040284.852
10 0 60575   45000.00000  0      10529909.304      12580076.616      19524805.635
10 0 60575   45900.00000  0      10904230.972      14840669.847      17629855.337
10 0 60575   46800.00000  0      11391678.891      16819373.625      15391933.695
10 0 60575   47700.00000  0      11944825.039      18474094.442      12854295.247
10 0 60575   48600.00000  0      12510454.754      19774223.772      10066128.134
10 0 60575   49500.00000  0      13031961.821      20701736.257       7081608.661
10 0 60575   50400.00000  0      13451909.927      21251771.723       3958848.999
10 0 60575   51300.00000  0      13714651.015      21432674.453        758758.396
10 0 60575   52200.00000  0      13768887.634      21265486.355      -2456159.155
10 0 60575   53100.00000  0      13570067.868      20782914.405      -5623045.811
10 0 60575   54000.00000  0      13082508.033      20027815.809      -8679942.923
10 0 60575   54900.00000  0      12281149.747      19051265.703     -11567029.128
10 0 60575   55800.00000  0      11152873.688      17910290.729     -14227816.532
10 0 60575   56700.00000  0       9697311.743      16665366.641     -16610278.905
10 0 60575   57600.00000  0       7927121.256      15377788.436     -18667887.498
10 0 60575   58500.00000  0       5867708.713      14107026.864     -20360532.465
10 0 60575   59400.00000  0       3556414.324      12908185.401     -21655310.757
10 0 60575   60300.00000  0       1041192.383      11829666.776     -22527164.794
10 0 60575   61200.00000  0      -1621156.027      10911148.407     -22959359.818
10 0 60575   62100.00000  0      -4367122.450      10181951.980     -22943791.689
10 0 60575   63000.00000  0      -7128911.594       9659874.795     -22481120.736
10 0 60575   63900.00000  0      -9837040.637       9350530.091     -21580731.030
10 0 60575   64800.00000  0     -12423008.145       9247221.463     -20260518.057
10 0 60575   65700.00000  0     -14821921.284       9331353.560     -18546511.160
10 0 60575   66600.00000  0     -16974972.647       9573358.558     -16472340.188
10 0 60575   67500.00000  0     -18831665.042       9934096.379     -14078558.597
10 0 60575   68400.00000  0     -20351693.827      10366667.088     -11411837.671
10 0 60575   69300.00000  0     -21506411.173      10818557.196      -8524048.649
10 0 60575   70200.00000  0     -22279814.364      11234028.259      -5471251.245
10 0 60575   71100.00000  0     -22669020.167      11556646.759      -2312608.415
10 0 60575   72000.00000  0     -22684208.560      11731849.060        890751.852
10 0 60575   72900.00000  0     -22348040.862      11709434.382       4076906.323
10 0 60575   73800.00000  0     -21694578.634      11445882.229       7184316.354
10 0 60575   74700.00000  0     -20767749.837      10906398.343      10152996.380
10 0 60575   75600.00000  0     -19619426.818      10066604.639      12925650.198
10 0 60575   76500.00000  0     -18307196.085       8913803.255      15448755.017
10 0 60575   77400.00000  0     -16891911.981       7447762.199      17673574.322
10 0 60575   78300.00000  0     -15435134.773       5680989.401      19557081.942
10 0 60575   79200.00000  0     -13996558.163       3638482.539      21062781.211
10 0 60575   80100.00000  0     -12631531.560       1356963.035      22161404.771
10 0 60575   81000.00000  0     -11388778.696      -1116376.673      22831482.393
10 0 60575   81900.00000  0     -10308406.396      -3725563.851      23059766.124
10 0 60575   82800.00000  0      -9420285.923      -6407907.552      22841504.125
10 0 60575   83700.00000  0      -8742874.515      -9096350.117      22180556.820
10 0 60575   84600.00000  0      -8282527.198     -11722013.722      21089351.365
10 0 60575   85500.00000  0      -8033329.192     -14216838.926      19588673.033
10 0 60576       0.00000  0      -7977457.952     -16516207.345      17707294.926
10 0 60576     900.00000  0      -8086061.965     -18561440.168      15481450.396
10 0 60576    1800.00000  0      -8320621.593     -20302068.159      12954155.715
10 0 60576    2700.00000  0      -8634736.541     -21697777.256      10174393.827
10 0 60576    3600.00000  0      -8976265.761     -22719946.464       7196173.245
10 0 60576    4500.00000  0      -9289729.727     -23352711.277       4077479.400
10 0 60576    5400.00000  0      -9518872.796     -23593505.498        879138.683
10 0 60576    6300.00000  0      -9609275.469     -23453056.468      -2336381.970
10 0 60576    7200.00000  0      -9510903.342     -22954832.273      -5506215.022
10 0 60576    8100.00000  0      -9180481.506     -22133963.407      -8568345.431
10 0 60576    9000.00000  0      -8583590.295     -21035684.522     -11462849.810
10 0 60576    9900.00000  0      -7696390.122     -19713363.118     -14133094.660
10 0 60576   10800.00000  0      -6506899.319     -18226200.274     -16526867.553
10 0 60576   11700.00000  0      -5015768.500     -16636702.911     -18597416.786
10 0 60576   12600.00000  0      -3236517.162     -15008036.898     -20304377.409
10 0 60576   13500.00000  0      -1195221.821     -13401375.141     -21614564.378
10 0 60576   14400.00000  0       1070331.024     -11873354.446     -22502617.004
10 0 60576   15300.00000  0       3511990.685     -10473749.526     -22951482.479
99